Location: Mount Cross
(36.6390°N, 79.4878°W)
Time: 01:20:30
(UTC+00:00)

SR - Pass Details

Date: 03 April 2023
Orbit: 580 x 867 km, 66.7° (Epoch: 08 June)

Event Time Altitude Azimuth Distance (km) Brightness Sun altitude
Rises 14:10:20 0° 336° (NNW) 2,835 ? 36.4°
Reaches altitude 10° 14:12:32 10° 339° (NNW) 1,952 ? 36.8°
Maximum altitude 14:16:52 63° 61° (ENE) 705 ? 37.6°
Drops below altitude 10° 14:21:30 10° 143° (SE) 2,077 ? 38.4°
Sets 14:23:55 0° 146° (SSE) 3,034 ? 38.8°
